Bekescsaba, Hungary

4:10 AM CET on March 25, 2017 (GMT +0100)
Bekescsaba

Weather History for LHBC - December, 2013

Change the Weather History Date:

Thursday, December 26, 2013

  Actual Average (LRAR) Record (LRAR)
Temperature  
Mean Temperature 47 °F -  
Max Temperature 59 °F 35 °F 59 °F (2013)
Min Temperature 35 °F 23 °F 5 °F (1998)
Degree Days  
Heating Degree Days 18    
Moisture  
Dew Point 35 °F    
Average Humidity 55    
Maximum Humidity 75    
Minimum Humidity 34    
Precipitation  
Precipitation 0.00 in - - ()
Sea Level Pressure  
Sea Level Pressure 29.75 in    
Wind  
Wind Speed 9 mph ()    
Max Wind Speed 18 mph    
Max Gust Speed -    
Visibility 9.9 miles    
Events      
Averages and records for this station are not official NWS values.
T = Trace of Precipitation, MM = Missing Value Source: Averaged Metar Reports

Daily Weather History Graph

Daily Weather History Graph

Search for Another Location

Airport or City:

Trip Planner

Search our weather history database for the weather conditions in past years. The results will help you decide how hot, cold, wet, or windy it might be!

Date:

Astronomy

Dec. 26, 2013 Rise Set
Actual Time 7:18 AM CET 3:53 PM CET
Civil Twilight 6:43 AM CET 4:28 PM CET
Nautical Twilight 6:05 AM CET 5:06 PM CET
Astronomical Twilight 5:28 AM CET 5:43 PM CET
Moon 12:10 AM CET (12/26) 11:34 AM CET (12/26)
Length of Visible Light 9h 44m
Length of Day
8h 34m
Last Quarter, 41% of the Moon is Illuminated
Dec 26
Last Quarter
Jan 1
New
Jan 8
First Quarter
Jan 16
Full
Jan 24
Last Quarter

Hourly Weather History & Observations

Time (CET) Temp. Windchill Dew Point Humidity Pressure Visibility Wind Dir Wind Speed Gust Speed Precip Events Conditions
12:00 AM 41 °F - 32 °F 62% 29.87 in - SSE 8.9 mph - -  
1:00 AM 38 °F - 30 °F 65% 29.87 in - SE 6.7 mph - -  
2:00 AM 35 °F - 29 °F 73% 29.86 in - SE 6.7 mph - -  
3:00 AM 37 °F - 31 °F 73% 29.85 in - SE 6.7 mph - -  
4:00 AM 39 °F - 32 °F 66% 29.83 in - SSE 6.7 mph - -  
4:45 AM 41.0 °F 35.8 °F 32.0 °F 70% 29.80 in - SSE 8.1 mph - N/A   Clear
5:00 AM 41 °F - 32 °F 62% 29.82 in 9 mi SSE 6.7 mph - -   Partly Cloudy
5:45 AM 39.2 °F 33.6 °F 32.0 °F 75% 29.80 in - SSE 8.1 mph - N/A   Clear
6:00 AM 39 °F - 32 °F 67% 29.81 in 12 mi SSE 8.9 mph - -   Partly Cloudy
6:45 AM 41.0 °F 35.2 °F 32.0 °F 70% 29.80 in - SSE 9.2 mph - N/A   Clear
7:00 AM 40 °F - 33 °F 67% 29.80 in 16 mi SSE 8.9 mph - -   Partly Cloudy
7:45 AM 42.8 °F 36.2 °F 33.8 °F 70% 29.77 in - SSE 12.7 mph - N/A   Clear
8:00 AM 42 °F - 34 °F 64% 29.77 in 22 mi SSE 13.4 mph - -   Partly Cloudy
9:00 AM 45 °F - 35 °F 57% 29.77 in - SSE 8.9 mph - -  
9:45 AM 50.0 °F - 37.4 °F 62% 29.77 in - SSE 12.7 mph - N/A   Clear
10:00 AM 50 °F - 37 °F 49% 29.77 in 31 mi SSE 13.4 mph - -   Partly Cloudy
11:00 AM 52 °F - 37 °F 44% 29.75 in - SSE 13.4 mph - -  
12:00 PM 54 °F - 38 °F 42% 29.72 in - SSE 15.7 mph - -  
12:45 PM 55.4 °F - 39.2 °F 54% 29.68 in 6.2 mi SSE 15.0 mph - N/A   Mostly Cloudy
1:00 PM 56 °F - 39 °F 41% 29.69 in 34 mi SSE 13.4 mph - -   Partly Cloudy
1:45 PM 59.0 °F - 37.4 °F 45% 29.68 in 6.2 mi South 17.3 mph - N/A   Mostly Cloudy
2:00 PM 58 °F - 37 °F 34% 29.68 in 34 mi South 17.9 mph - -   Partly Cloudy
2:45 PM 57.2 °F - 37.4 °F 48% 29.68 in - South 13.8 mph - N/A   Clear
3:00 PM 57 °F - 37 °F 35% 29.67 in 34 mi South 13.4 mph - -   Partly Cloudy
3:45 PM 53.6 °F - 39.2 °F 58% 29.68 in - SSE 8.1 mph - N/A   Clear
4:00 PM 53 °F - 38 °F 46% 29.68 in 31 mi SSE 6.7 mph - -   Partly Cloudy
5:00 PM 53 °F - 37 °F 43% 29.67 in - SE 13.4 mph - -  
6:00 PM 52 °F - 37 °F 45% 29.68 in - SE 11.2 mph - -  
6:45 PM 51.8 °F - 35.6 °F 54% 29.68 in - SE 11.5 mph - N/A   Clear
7:00 PM 51 °F - 36 °F 45% 29.69 in 31 mi SE 11.2 mph - -   Partly Cloudy
8:00 PM 52 °F - 36 °F 43% 29.69 in - SE 11.2 mph - -  
9:00 PM 52 °F - 36 °F 42% 29.69 in - SE 11.2 mph - -  
10:00 PM 52 °F - 36 °F 43% 29.70 in - SE 11.2 mph - -  
11:00 PM 52 °F - 37 °F 45% 29.72 in - SSE 13.4 mph - -